Location: Usti nad Orlici
(49.9830°N, 16.4000°E)
Time: 23:39:45
(UTC+01:00)

ISS - Visible Passes

Search period start: 28 November 2023 00:00
Search period end: 08 December 2023 00:00
Orbit: 416 x 418 km, 51.6° (Epoch: 28 November)

Date Brightness Start Highest point End Pass type
(mag) Time Alt. Az. Time Alt. Az. Time Alt. Az.
28 Nov -3.7 17:29:41 10° WNW 17:33:02 67° N 17:34:22 33° E visible
28 Nov -0.7 19:06:30 10° WNW 19:07:17 16° W 19:07:17 16° W visible
29 Nov -3.6 16:41:21 10° W 16:44:41 63° N 16:48:02 10° E visible
29 Nov -3.2 18:18:10 10° WNW 18:21:00 57° W 18:21:00 57° W visible
30 Nov -3.8 17:29:49 10° WNW 17:33:12 89° NNE 17:34:46 29° ESE visible
30 Nov -0.6 19:06:49 10° W 19:07:41 15° W 19:07:41 15° W visible
01 Dec -3.8 16:41:25 10° WNW 16:44:48 75° NNE 16:48:09 10° E visible
01 Dec -2.6 18:18:17 10° W 18:21:25 37° SSW 18:21:31 37° SSW visible
02 Dec -3.1 17:29:47 10° WNW 17:33:04 54° SSW 17:35:27 17° SE visible
02 Dec -0.5 19:07:45 10° WSW 19:08:23 12° WSW 19:08:23 12° WSW visible
03 Dec -3.5 16:41:17 10° WNW 16:44:38 74° SSW 16:47:59 10° ESE visible
03 Dec -1.2 18:18:33 10° W 18:20:58 19° SW 18:22:29 14° S visible
04 Dec -1.7 17:29:43 10° W 17:32:37 27° SW 17:35:31 10° SSE visible
05 Dec -2.3 16:41:00 10° W 16:44:10 39° SSW 16:47:20 10° SE visible
06 Dec -0.6 17:30:08 10° WSW 17:31:49 13° SW 17:33:30 10° SSW visible
07 Dec -0.8 16:40:51 10° W 16:43:22 20° SW 16:45:54 10° S visible
